{"data":{"norad_id":60309,"intl_designator":"2024-133J","name":"STARLINK-11213 [DTC]","alt_names":[],"object_type":"PAYLOAD","status":"ACTIVE","operator":null,"country":"US","launch_date":"2024-07-28","launch_site_code":"AFWTR","launch_vehicle":null,"mission":null,"orbit_class":"UNKNOWN","rcs_meters":null,"size_class":null,"mass_kg":null,"dimensions":null,"purposes":["comms"],"wikipedia_slug":null,"has_3d_model":false,"image_url":null,"decayed_at":null,"tle_current":{"epoch":"2026-05-25T03:11:48.274368Z","epoch_age_seconds":70516,"freshness":"FRESH","line1":"1 60309U 24133J   26145.13319762 -.00000359  00000+0  18904-5 0  9995","line2":"2 60309  53.1586 129.1473 0000902  84.8863 275.2258 15.69707421105743","mean_motion":15.69707421,"eccentricity":9.02e-5,"inclination_deg":53.1586,"raan_deg":129.1473,"arg_perigee_deg":84.8863,"mean_anomaly_deg":275.2258,"bstar":1.8904e-6,"rev_number":10574,"period_min":91.736840938334,"perigee_km":359.12637456472,"apogee_km":360.34188651667,"semimajor_km":6737.8711305407,"source":"CELESTRAK","updated_at":"2026-05-25T13:38:19.229691Z"}}}